CGMPW CYQM-CYHZ

Flight info

Callsign CGMPW
Flight time 0h 35m
Altitude 13000
Route DUTIR
Aircraft PC24/L-SBDGIRWY/LB2

Departure

Time 2026-05-06 00:36
Airport Greater Moncton Roméo LeBlanc International Airport (CYQM)

Arrival

Time 2026-05-06 01:11
Airport Halifax / Stanfield International Airport (CYHZ)
Time Latitude Longitude Altitude Speed Heading
2026-05-06 00:24 46.10575 -64.66930 211 ft 0 kts 87°
2026-05-06 00:30 46.10581 -64.66922 211 ft 2 kts 14°
2026-05-06 00:30 46.10591 -64.67020 210 ft 27 kts 272°
2026-05-06 00:30 46.10586 -64.67357 209 ft 34 kts 267°
2026-05-06 00:30 46.10576 -64.67684 207 ft 31 kts 265°
2026-05-06 00:31 46.10575 -64.67971 206 ft 27 kts 268°
2026-05-06 00:31 46.10562 -64.68219 205 ft 23 kts 271°
2026-05-06 00:31 46.10569 -64.68277 205 ft 6 kts 300°
2026-05-06 00:31 46.10622 -64.68369 208 ft 21 kts 313°
2026-05-06 00:32 46.10754 -64.68460 208 ft 23 kts 355°
2026-05-06 00:32 46.10921 -64.68474 206 ft 25 kts 358°
2026-05-06 00:32 46.11102 -64.68484 197 ft 27 kts 357°
2026-05-06 00:32 46.11161 -64.68489 207 ft 0 kts 354°
2026-05-06 00:33 46.11188 -64.68488 197 ft 9 kts 359°
2026-05-06 00:33 46.11289 -64.68485 204 ft 20 kts 13°
2026-05-06 00:33 46.11454 -64.68302 206 ft 39 kts 45°
2026-05-06 00:34 46.11672 -64.68015 197 ft 46 kts 42°
2026-05-06 00:34 46.11915 -64.67697 192 ft 46 kts 42°
2026-05-06 00:34 46.12146 -64.67391 197 ft 44 kts 42°
2026-05-06 00:34 46.12370 -64.67093 191 ft 43 kts 43°
2026-05-06 00:35 46.12546 -64.66892 197 ft 0 kts 93°
2026-05-06 00:35 46.12517 -64.66893 190 ft 14 kts 217°
2026-05-06 00:35 46.12347 -64.67112 194 ft 72 kts 222°
2026-05-06 00:35 46.11773 -64.67863 234 ft 142 kts 219°
2026-05-06 00:36 46.10990 -64.68928 981 ft 177 kts 223°
2026-05-06 00:36 46.10066 -64.70287 2064 ft 191 kts 226°
2026-05-06 00:36 46.09173 -64.71597 3841 ft 184 kts 225°
2026-05-06 00:36 46.08148 -64.72891 4782 ft 210 kts 219°
2026-05-06 00:37 46.06683 -64.73912 4989 ft 265 kts 202°
2026-05-06 00:37 46.04851 -64.74100 5352 ft 259 kts 184°
2026-05-06 00:37 46.03672 -64.73744 5773 ft 267 kts 172°
2026-05-06 00:37 46.01623 -64.71845 6554 ft 253 kts 148°
2026-05-06 00:38 46.00771 -64.70675 6945 ft 261 kts 148°
2026-05-06 00:38 45.99381 -64.68831 7569 ft 283 kts 147°
2026-05-06 00:38 45.97886 -64.66805 8196 ft 305 kts 145°
2026-05-06 00:38 45.96312 -64.64643 8857 ft 320 kts 144°
2026-05-06 00:39 45.94674 -64.62408 9451 ft 329 kts 144°
2026-05-06 00:39 45.92981 -64.60121 9604 ft 336 kts 143°
2026-05-06 00:39 45.91294 -64.57831 9605 ft 332 kts 143°
2026-05-06 00:39 45.89617 -64.55555 9605 ft 330 kts 144°
2026-05-06 00:40 45.87941 -64.53302 9603 ft 329 kts 144°
2026-05-06 00:40 45.86272 -64.51049 9604 ft 330 kts 143°
2026-05-06 00:40 45.84594 -64.48789 9606 ft 331 kts 144°
2026-05-06 00:40 45.82931 -64.46573 9735 ft 328 kts 144°
2026-05-06 00:41 45.81258 -64.44324 10034 ft 331 kts 143°
2026-05-06 00:41 45.79576 -64.42058 10349 ft 333 kts 143°
2026-05-06 00:41 45.77882 -64.39777 10668 ft 333 kts 143°
2026-05-06 00:41 45.76189 -64.37502 10985 ft 334 kts 143°
2026-05-06 00:42 45.74488 -64.35225 11315 ft 336 kts 143°
2026-05-06 00:42 45.72777 -64.32928 11631 ft 338 kts 143°
2026-05-06 00:42 45.71074 -64.30649 11955 ft 339 kts 143°
2026-05-06 00:42 45.69344 -64.28334 12268 ft 341 kts 143°
2026-05-06 00:43 45.67580 -64.25979 12104 ft 345 kts 143°
2026-05-06 00:43 45.65838 -64.23640 11919 ft 341 kts 143°
2026-05-06 00:43 45.64117 -64.21343 11741 ft 336 kts 144°
2026-05-06 00:43 45.62408 -64.19067 11553 ft 335 kts 144°
2026-05-06 00:44 45.60718 -64.16822 11227 ft 336 kts 144°
2026-05-06 00:44 45.59020 -64.14555 10911 ft 333 kts 144°
2026-05-06 00:44 45.57333 -64.12308 10592 ft 330 kts 144°
2026-05-06 00:44 45.55657 -64.10083 10278 ft 327 kts 144°
2026-05-06 00:45 45.53990 -64.07872 9966 ft 325 kts 144°
2026-05-06 00:45 45.52337 -64.05678 9660 ft 324 kts 144°
2026-05-06 00:45 45.50691 -64.03498 9319 ft 323 kts 144°
2026-05-06 00:45 45.49048 -64.01324 8985 ft 322 kts 145°
2026-05-06 00:46 45.47408 -63.99151 8648 ft 322 kts 145°
2026-05-06 00:46 45.45769 -63.96983 8319 ft 321 kts 145°
2026-05-06 00:46 45.44129 -63.94818 8004 ft 321 kts 145°
2026-05-06 00:46 45.42497 -63.92661 7679 ft 319 kts 145°
2026-05-06 00:47 45.40873 -63.90517 7341 ft 317 kts 145°
2026-05-06 00:47 45.39276 -63.88421 7029 ft 316 kts 145°
2026-05-06 00:47 45.37667 -63.86295 6720 ft 315 kts 145°
2026-05-06 00:47 45.36063 -63.84185 6412 ft 312 kts 146°
2026-05-06 00:48 45.34506 -63.82127 6101 ft 296 kts 146°
2026-05-06 00:48 45.33050 -63.80202 5828 ft 275 kts 146°
2026-05-06 00:48 45.31694 -63.78422 5536 ft 257 kts 147°
2026-05-06 00:48 45.30418 -63.76753 5243 ft 243 kts 148°
2026-05-06 00:49 45.29200 -63.75159 4927 ft 234 kts 149°
2026-05-06 00:49 45.28014 -63.73611 4602 ft 229 kts 149°
2026-05-06 00:49 45.26840 -63.72083 4317 ft 228 kts 149°
2026-05-06 00:49 45.25680 -63.70564 4116 ft 223 kts 150°
2026-05-06 00:50 45.24546 -63.69077 4113 ft 222 kts 150°
2026-05-06 00:50 45.23398 -63.67585 4117 ft 226 kts 150°
2026-05-06 00:50 45.22236 -63.66070 4108 ft 227 kts 149°
2026-05-06 00:50 45.21073 -63.64547 3988 ft 227 kts 149°
2026-05-06 00:51 45.19936 -63.63055 3956 ft 222 kts 150°
2026-05-06 00:51 45.18804 -63.61583 3947 ft 220 kts 150°
2026-05-06 00:51 45.17669 -63.60112 3953 ft 223 kts 150°
2026-05-06 00:51 45.16517 -63.58609 3956 ft 225 kts 150°
2026-05-06 00:52 45.15367 -63.57107 3972 ft 224 kts 150°
2026-05-06 00:52 45.14220 -63.55614 3966 ft 223 kts 150°
2026-05-06 00:52 45.13075 -63.54126 3971 ft 222 kts 150°
2026-05-06 00:52 45.11949 -63.52656 3963 ft 214 kts 150°
2026-05-06 00:53 45.10902 -63.51279 3961 ft 198 kts 152°
2026-05-06 00:53 45.09923 -63.50009 3961 ft 190 kts 153°
2026-05-06 00:53 45.08951 -63.48764 3961 ft 189 kts 153°
2026-05-06 00:53 45.07976 -63.47508 3965 ft 189 kts 153°
2026-05-06 00:54 45.07051 -63.46145 3970 ft 197 kts 142°
2026-05-06 00:54 45.06248 -63.44535 3981 ft 201 kts 139°
2026-05-06 00:54 45.05437 -63.42913 3975 ft 202 kts 139°
2026-05-06 00:54 45.04614 -63.41332 3966 ft 192 kts 149°
2026-05-06 00:55 45.03586 -63.40318 3979 ft 175 kts 167°
2026-05-06 00:55 45.02493 -63.39720 3959 ft 164 kts 180°
2026-05-06 00:55 45.01395 -63.39525 3944 ft 155 kts 192°
2026-05-06 00:55 45.00375 -63.39678 3982 ft 136 kts 204°
2026-05-06 00:56 44.99545 -63.40086 3983 ft 119 kts 213°
2026-05-06 00:56 44.98867 -63.40663 3923 ft 113 kts 217°
2026-05-06 00:56 44.98219 -63.41254 3880 ft 109 kts 219°
2026-05-06 00:56 44.97593 -63.41844 3838 ft 108 kts 220°
2026-05-06 00:57 44.96974 -63.42444 3807 ft 108 kts 220°
2026-05-06 00:57 44.96360 -63.43051 3774 ft 108 kts 220°
2026-05-06 00:57 44.95746 -63.43661 3745 ft 107 kts 221°
2026-05-06 00:57 44.95134 -63.44264 3712 ft 108 kts 220°
2026-05-06 00:58 44.94522 -63.44870 3697 ft 107 kts 220°
2026-05-06 00:58 44.93908 -63.45469 3672 ft 108 kts 219°
2026-05-06 00:58 44.93311 -63.46057 3627 ft 102 kts 221°
2026-05-06 00:58 44.92751 -63.46609 3517 ft 94 kts 222°
2026-05-06 00:59 44.92226 -63.47132 3353 ft 91 kts 221°
2026-05-06 00:59 44.91711 -63.47641 3186 ft 90 kts 221°
2026-05-06 00:59 44.91204 -63.48142 3026 ft 89 kts 221°
2026-05-06 00:59 44.90699 -63.48641 2890 ft 88 kts 221°
2026-05-06 01:00 44.90203 -63.49129 2756 ft 86 kts 222°
2026-05-06 01:00 44.89662 -63.49673 2763 ft 111 kts 222°
2026-05-06 01:00 44.88975 -63.50354 3559 ft 139 kts 220°
2026-05-06 01:00 44.88310 -63.51579 4079 ft 191 kts 250°
2026-05-06 01:01 44.88455 -63.53806 4103 ft 273 kts 283°
2026-05-06 01:01 44.89520 -63.56091 4037 ft 272 kts 300°
2026-05-06 01:01 44.90724 -63.57984 3952 ft 254 kts 303°
2026-05-06 01:01 44.91999 -63.59642 3795 ft 254 kts 319°
2026-05-06 01:02 44.93777 -63.60178 3586 ft 275 kts 357°
2026-05-06 01:02 44.95612 -63.59222 3270 ft 287 kts 27°
2026-05-06 01:02 44.97261 -63.57632 3028 ft 286 kts 32°
2026-05-06 01:02 44.98845 -63.55995 3020 ft 277 kts 33°
2026-05-06 01:03 45.00371 -63.54385 2983 ft 271 kts 33°
2026-05-06 01:03 45.01857 -63.52802 2983 ft 265 kts 33°
2026-05-06 01:03 45.03316 -63.51247 2982 ft 260 kts 34°
2026-05-06 01:03 45.04752 -63.49718 2982 ft 256 kts 33°
2026-05-06 01:04 45.05965 -63.47934 2962 ft 253 kts 67°
2026-05-06 01:04 45.06197 -63.45629 2977 ft 226 kts 113°
2026-05-06 01:04 45.05752 -63.43576 2991 ft 214 kts 123°
2026-05-06 01:04 45.05022 -63.41974 2963 ft 175 kts 163°
2026-05-06 01:05 45.03970 -63.41472 2994 ft 154 kts 183°
2026-05-06 01:05 45.02930 -63.41120 2996 ft 152 kts 182°
2026-05-06 01:05 45.01944 -63.40771 2995 ft 145 kts 183°
2026-05-06 01:05 45.00978 -63.40429 3005 ft 141 kts 184°
2026-05-06 01:06 45.00030 -63.40104 3011 ft 139 kts 184°
2026-05-06 01:06 44.99181 -63.40305 2901 ft 121 kts 223°
2026-05-06 01:06 44.98468 -63.40989 2743 ft 124 kts 219°
2026-05-06 01:06 44.97773 -63.41655 2573 ft 115 kts 221°
2026-05-06 01:07 44.97214 -63.42191 2433 ft 84 kts 223°
2026-05-06 01:07 44.96791 -63.42610 2307 ft 65 kts 225°
2026-05-06 01:07 44.96449 -63.42946 2034 ft 60 kts 224°
2026-05-06 01:07 44.96114 -63.43280 1691 ft 59 kts 222°
2026-05-06 01:08 44.95742 -63.43649 1473 ft 67 kts 221°
2026-05-06 01:08 44.95358 -63.44034 1279 ft 71 kts 220°
2026-05-06 01:08 44.94923 -63.44465 1086 ft 83 kts 217°
2026-05-06 01:08 44.94435 -63.44947 964 ft 87 kts 214°
2026-05-06 01:09 44.93937 -63.45443 808 ft 92 kts 212°
2026-05-06 01:09 44.93374 -63.45997 840 ft 113 kts 212°
2026-05-06 01:09 44.92649 -63.46690 1033 ft 127 kts 216°
2026-05-06 01:09 44.92000 -63.47303 1008 ft 100 kts 217°
2026-05-06 01:10 44.91459 -63.47888 877 ft 98 kts 216°
2026-05-06 01:10 44.90913 -63.48465 711 ft 98 kts 211°
2026-05-06 01:10 44.90362 -63.48979 642 ft 92 kts 210°
2026-05-06 01:10 44.89815 -63.49516 540 ft 110 kts 212°
2026-05-06 01:11 44.89193 -63.50125 544 ft 95 kts 213°
2026-05-06 01:11 44.88703 -63.50623 460 ft 79 kts 211°
2026-05-06 01:11 44.88414 -63.50907 454 ft 25 kts 217°
2026-05-06 01:11 44.88346 -63.51067 453 ft 19 kts 297°
2026-05-06 01:12 44.88390 -63.51236 453 ft 19 kts 243°
2026-05-06 01:12 44.88285 -63.51354 453 ft 17 kts 214°
2026-05-06 01:12 44.88197 -63.51438 454 ft 13 kts 214°
2026-05-06 01:12 44.88128 -63.51513 454 ft 14 kts 227°
2026-05-06 01:13 44.88160 -63.51621 454 ft 14 kts 297°
2026-05-06 01:14 43.63278 -79.39451 253 ft 0 kts 357°